,,,PA_Meas_PMT16A,,PR_Meas_QMR101_102,,RH_Meas_QMH101,,SR_Meas_QMS101,,TA_Meas_QMH101,,GenWind,,GenWind,
date,time,status,PA,status,PR,status,RH,status,SR,status,TA,status,DirAvg,status,SpdAvg,
2010-07-17, 00:00:04,VALID,999.331,VALID,0,VALID,83.1629,VALID,0,VALID,25.1241,VALID,59,VALID,1.72148,
2010-07-17, 00:01:04,VALID,999.328,VALID,0,VALID,83.9792,VALID,0,VALID,25.0265,VALID,44,VALID,1.83867,
2010-07-17, 00:02:04,VALID,999.315,VALID,0,VALID,84.7422,VALID,0,VALID,24.8898,VALID,39,VALID,1.50937,
2010-07-17, 00:03:04,VALID,999.312,VALID,0,VALID,85.406,VALID,0,VALID,24.7532,VALID,18,VALID,1.42539,
2010-07-17, 00:04:04,VALID,999.285,VALID,0,VALID,85.9095,VALID,0,VALID,24.6361,VALID,11,VALID,1.2332,
2010-07-17, 00:05:04,VALID,999.242,VALID,0,VALID,86.2529,VALID,0,VALID,24.5209,VALID,14,VALID,1.1918,
2010-07-17, 00:06:04,VALID,999.235,VALID,0,VALID,86.5046,VALID,0,VALID,24.4623,VALID,13,VALID,1.15352,
2010-07-17, 00:07:04,VALID,999.245,VALID,0,VALID,86.436,VALID,0,VALID,24.4037,VALID,13,VALID,0.971094,
2010-07-17, 00:08:04,VALID,999.266,VALID,0,VALID,86.4131,VALID,0,VALID,24.3647,VALID,8,VALID,0.676172,
2010-07-17, 00:09:04,VALID,999.25,VALID,0,VALID,86.6877,VALID,0,VALID,24.3452,VALID,37,VALID,0.504297,
2010-07-17, 00:10:04,VALID,999.222,VALID,0,VALID,86.7793,VALID,0,VALID,24.2866,VALID,92,VALID,0.570313,
2010-07-17, 00:11:04,VALID,999.18,VALID,0,VALID,86.764,VALID,0,VALID,24.2263,VALID,85,VALID,0.0988281,
2010-07-17, 00:12:04,VALID,999.089,VALID,0,VALID,86.8098,VALID,0,VALID,24.2281,VALID,349,VALID,0.590625,
2010-07-17, 00:13:04,VALID,999.046,VALID,0,VALID,86.5199,VALID,0,VALID,24.2671,VALID,324,VALID,0.596875,
2010-07-17, 00:14:04,VALID,999.072,VALID,0,VALID,86.4283,VALID,0,VALID,24.3062,VALID,324,VALID,0.501172,
2010-07-17, 00:15:04,VALID,999.076,VALID,0,VALID,86.4436,VALID,0,VALID,24.3452,VALID,285,VALID,0.602734,
2010-07-17, 00:16:04,VALID,999.089,VALID,0,VALID,86.1766,VALID,0,VALID,24.4037,VALID,284,VALID,0.639453,
2010-07-17, 00:17:04,VALID,999.095,VALID,0,VALID,85.8637,VALID,0,VALID,24.4818,VALID,300,VALID,0.674219,
2010-07-17, 00:18:04,VALID,999.152,VALID,0,VALID,85.6654,VALID,0,VALID,24.5013,VALID,301,VALID,0.630078,
2010-07-17, 00:19:04,VALID,999.144,VALID,0,VALID,85.7417,VALID,0,VALID,24.5209,VALID,58,VALID,0.853906,
2010-07-17, 00:20:04,VALID,999.175,VALID,0,VALID,85.6883,VALID,0.112286,VALID,24.4391,VALID,67,VALID,0.925,
2010-07-17, 00:21:04,VALID,999.165,VALID,0,VALID,85.6806,VALID,0,VALID,24.4,VALID,66,VALID,0.678125,
2010-07-17, 00:22:04,VALID,999.114,VALID,0,VALID,85.6501,VALID,0,VALID,24.4409,VALID,66,VALID,0.338281,
2010-07-17, 00:23:04,VALID,999.088,VALID,0,VALID,85.6272,VALID,0,VALID,24.4604,VALID,66,VALID,0.398047,
2010-07-17, 00:24:04,VALID,999.039,VALID,0,VALID,85.6501,VALID,0,VALID,24.48,VALID,324,VALID,0.830469,
2010-07-17, 00:25:04,VALID,998.99,VALID,0,VALID,85.6959,VALID,0.112286,VALID,24.4995,VALID,305,VALID,0.825391,
2010-07-17, 00:26:04,VALID,998.997,VALID,0,VALID,85.94,VALID,0,VALID,24.4995,VALID,305,VALID,0.820313,
2010-07-17, 00:27:04,VALID,999.036,VALID,0,VALID,86.0926,VALID,0.112286,VALID,24.48,VALID,305,VALID,0.722656,
2010-07-17, 00:28:04,VALID,999.078,VALID,0,VALID,86.085,VALID,0.112286,VALID,24.4604,VALID,6,VALID,0.630078,
2010-07-17, 00:29:04,VALID,999.131,VALID,0,VALID,86.23,VALID,0.112286,VALID,24.4,VALID,64,VALID,1.15234,
2010-07-17, 00:30:04,VALID,999.149,VALID,0,VALID,86.23,VALID,0.112286,VALID,24.3415,VALID,65,VALID,1.49688,
2010-07-17, 00:31:04,VALID,999.135,VALID,0,VALID,86.0316,VALID,0,VALID,24.361,VALID,49,VALID,1.93984,
2010-07-17, 00:32:04,VALID,999.133,VALID,0,VALID,85.94,VALID,0,VALID,24.4214,VALID,45,VALID,1.53242,
2010-07-17, 00:33:04,VALID,999.129,VALID,0,VALID,86.1918,VALID,0.112286,VALID,24.3805,VALID,20,VALID,1.1043,
2010-07-17, 00:34:04,VALID,999.117,VALID,0,VALID,86.4436,VALID,0.112286,VALID,24.3629,VALID,351,VALID,1.11328,
2010-07-17, 00:35:04,VALID,999.145,VALID,0,VALID,86.8556,VALID,0,VALID,24.3062,VALID,357,VALID,1.34883,
2010-07-17, 00:36:04,VALID,999.155,VALID,0,VALID,87.2371,VALID,0,VALID,24.2671,VALID,355,VALID,1.16016,
2010-07-17, 00:37:04,VALID,999.14,VALID,0,VALID,87.3592,VALID,0,VALID,24.2281,VALID,360,VALID,0.796484,
2010-07-17, 00:38:04,VALID,999.103,VALID,0,VALID,87.6338,VALID,0,VALID,24.1891,VALID,1,VALID,0.390234,
2010-07-17, 00:39:04,VALID,999.113,VALID,0,VALID,87.8856,VALID,0,VALID,24.15,VALID,1,VALID,0.00195313,
2010-07-17, 00:40:04,VALID,999.144,VALID,0,VALID,87.9237,VALID,0,VALID,24.0915,VALID,1,VALID,0,
2010-07-17, 00:41:04,VALID,999.144,VALID,0,VALID,88.29,VALID,0,VALID,24.072,VALID,1,VALID,0.15,
2010-07-17, 00:42:04,VALID,999.154,VALID,0,VALID,88.4807,VALID,0,VALID,24.0525,VALID,1,VALID,0.394922,
2010-07-17, 00:43:04,VALID,999.088,VALID,0,VALID,88.4654,VALID,0,VALID,24.0933,VALID,1,VALID,0.508203,
2010-07-17, 00:44:04,VALID,999.068,VALID,0,VALID,88.2518,VALID,0,VALID,24.0915,VALID,1,VALID,0.561328,
2010-07-17, 00:45:04,VALID,999.068,VALID,0,VALID,88.084,VALID,0,VALID,24.1305,VALID,1,VALID,0.585156,
2010-07-17, 00:46:04,VALID,999.041,VALID,0,VALID,87.9466,VALID,0,VALID,24.1891,VALID,1,VALID,0.686328,
2010-07-17, 00:47:04,VALID,999.014,VALID,0,VALID,87.6643,VALID,0,VALID,24.2086,VALID,1,VALID,0.431641,
2010-07-17, 00:48:04,VALID,999.047,VALID,0,VALID,87.4354,VALID,0,VALID,24.2281,VALID,271,VALID,0.79375,
2010-07-17, 00:49:04,VALID,999.046,VALID,0,VALID,87.0387,VALID,0,VALID,24.2458,VALID,272,VALID,0.404297,
2010-07-17, 00:50:04,VALID,999.047,VALID,0,VALID,86.7488,VALID,0,VALID,24.2866,VALID,271,VALID,0.175,
2010-07-17, 00:51:04,VALID,999.043,VALID,0,VALID,86.642,VALID,0,VALID,24.2866,VALID,271,VALID,0.366406,
2010-07-17, 00:52:04,VALID,999.014,VALID,0,VALID,86.4512,VALID,0,VALID,24.2866,VALID,271,VALID,0.521484,
2010-07-17, 00:53:04,VALID,998.979,VALID,0,VALID,86.5428,VALID,0,VALID,24.3062,VALID,33,VALID,0.871875,
2010-07-17, 00:54:04,VALID,998.987,VALID,0,VALID,86.291,VALID,0,VALID,24.2671,VALID,33,VALID,0.937109,
2010-07-17, 00:55:04,VALID,998.954,VALID,0,VALID,86.5046,VALID,0,VALID,24.2281,VALID,23,VALID,0.785156,
2010-07-17, 00:56:04,VALID,998.931,VALID,0,VALID,86.6496,VALID,0,VALID,24.1696,VALID,22,VALID,0.688281,
2010-07-17, 00:57:04,VALID,998.898,VALID,0,VALID,86.9395,VALID,0,VALID,24.111,VALID,350,VALID,0.552734,
2010-07-17, 00:58:04,VALID,998.876,VALID,0,VALID,87.1837,VALID,0,VALID,24.111,VALID,347,VALID,0.316406,
2010-07-17, 00:59:04,VALID,998.86,VALID,0,VALID,87.4202,VALID,0,VALID,24.0915,VALID,347,VALID,0.401563,
2010-07-17, 01:00:04,VALID,998.842,VALID,0,VALID,87.5346,VALID,0,VALID,24.0897,VALID,347,VALID,0.226172,
2010-07-17, 01:01:04,VALID,998.845,VALID,0,VALID,87.588,VALID,0,VALID,24.0915,VALID,347,VALID,0.191016,
2010-07-17, 01:02:04,VALID,998.818,VALID,0,VALID,87.6796,VALID,0,VALID,24.0915,VALID,347,VALID,0.331641,
2010-07-17, 01:03:04,VALID,998.778,VALID,0,VALID,87.588,VALID,0,VALID,24.1287,VALID,318,VALID,0.884766,
2010-07-17, 01:04:04,VALID,998.758,VALID,0,VALID,87.5117,VALID,0,VALID,24.1891,VALID,312,VALID,0.876172,
2010-07-17, 01:05:04,VALID,998.81,VALID,0,VALID,87.4583,VALID,0,VALID,24.1891,VALID,316,VALID,0.892187,
2010-07-17, 01:06:04,VALID,998.818,VALID,0,VALID,87.5423,VALID,0,VALID,24.1891,VALID,316,VALID,0.625391,
2010-07-17, 01:07:04,VALID,998.858,VALID,0,VALID,87.5957,VALID,0,VALID,24.1909,VALID,316,VALID,0.551953,
2010-07-17, 01:08:04,VALID,998.848,VALID,0,VALID,87.672,VALID,0,VALID,24.1305,VALID,316,VALID,0.614453,
2010-07-17, 01:09:04,VALID,998.841,VALID,0,VALID,87.7254,VALID,0,VALID,24.0915,VALID,359,VALID,0.786328,
2010-07-17, 01:10:04,VALID,998.845,VALID,0,VALID,87.9161,VALID,0,VALID,24.0134,VALID,36,VALID,0.813672,
2010-07-17, 01:11:04,VALID,998.836,VALID,0,VALID,88.2747,VALID,0,VALID,23.9159,VALID,37,VALID,0.817578,
2010-07-17, 01:12:04,VALID,998.818,VALID,0,VALID,88.8546,VALID,0,VALID,23.8768,VALID,37,VALID,1.06836,
2010-07-17, 01:13:04,VALID,998.789,VALID,0,VALID,88.7172,VALID,0,VALID,23.8573,VALID,37,VALID,1.19492,
2010-07-17, 01:14:04,VALID,998.748,VALID,0,VALID,88.5951,VALID,0,VALID,23.8573,VALID,40,VALID,0.896094,
2010-07-17, 01:15:04,VALID,998.8,VALID,0,VALID,88.4349,VALID,0,VALID,23.8378,VALID,40,VALID,0.594531,
2010-07-17, 01:16:04,VALID,998.818,VALID,0,VALID,88.5417,VALID,0,VALID,23.8183,VALID,58,VALID,0.787109,
2010-07-17, 01:17:04,VALID,998.82,VALID,0,VALID,88.6028,VALID,0,VALID,23.7988,VALID,87,VALID,1.05078,
2010-07-17, 01:18:04,VALID,998.758,VALID,0,VALID,88.6638,VALID,0,VALID,23.8396,VALID,64,VALID,0.828125,
2010-07-17, 01:19:04,VALID,998.759,VALID,0,VALID,88.6333,VALID,0,VALID,23.7988,VALID,53,VALID,0.316797,
2010-07-17, 01:20:04,VALID,998.756,VALID,0,VALID,88.702,VALID,0,VALID,23.7988,VALID,53,VALID,0,
2010-07-17, 01:21:04,VALID,998.75,VALID,0,VALID,88.7325,VALID,0,VALID,23.8591,VALID,53,VALID,0.302734,
2010-07-17, 01:22:04,VALID,998.701,VALID,0,VALID,88.6791,VALID,0,VALID,23.8378,VALID,53,VALID,0.174609,
2010-07-17, 01:23:04,VALID,998.691,VALID,0,VALID,88.5723,VALID,0,VALID,23.8768,VALID,53,VALID,0.232031,
2010-07-17, 01:24:04,VALID,998.673,VALID,0,VALID,88.4197,VALID,0,VALID,23.9159,VALID,53,VALID,0.123828,
2010-07-17, 01:25:04,VALID,998.672,VALID,0,VALID,88.0153,VALID,0,VALID,24.0134,VALID,27,VALID,0.566016,
2010-07-17, 01:26:04,VALID,998.676,VALID,0,VALID,87.5499,VALID,0,VALID,24.0915,VALID,27,VALID,0.216016,
2010-07-17, 01:27:04,VALID,998.67,VALID,0,VALID,87.2142,VALID,0,VALID,24.1305,VALID,27,VALID,0.0175781,
2010-07-17, 01:28:04,VALID,998.65,VALID,0,VALID,87.1303,VALID,0,VALID,24.15,VALID,27,VALID,0.208984,
2010-07-17, 01:29:04,VALID,998.608,VALID,0,VALID,87.2371,VALID,0,VALID,24.15,VALID,27,VALID,0.349219,
2010-07-17, 01:30:04,VALID,998.609,VALID,0,VALID,87.1608,VALID,0,VALID,24.1305,VALID,27,VALID,0.185156,
2010-07-17, 01:31:04,VALID,998.562,VALID,0,VALID,87.2294,VALID,0,VALID,24.1324,VALID,27,VALID,0.0238281,
2010-07-17, 01:32:04,VALID,998.58,VALID,0,VALID,87.3057,VALID,0,VALID,24.1128,VALID,27,VALID,0,
2010-07-17, 01:33:04,VALID,998.578,VALID,0,VALID,87.3286,VALID,0,VALID,24.1128,VALID,27,VALID,0,
2010-07-17, 01:34:04,VALID,998.58,VALID,0,VALID,87.2142,VALID,0,VALID,24.111,VALID,27,VALID,0.459375,
2010-07-17, 01:35:04,VALID,998.597,VALID,0,VALID,87.0997,VALID,0,VALID,24.1092,VALID,27,VALID,0.608203,
2010-07-17, 01:36:04,VALID,998.622,VALID,0,VALID,87.26,VALID,0,VALID,24.0701,VALID,27,VALID,0.725781,
2010-07-17, 01:37:04,VALID,998.647,VALID,0,VALID,87.4583,VALID,0,VALID,24.0329,VALID,27,VALID,1.03945,
2010-07-17, 01:38:04,VALID,998.662,VALID,0,VALID,87.7406,VALID,0,VALID,23.9921,VALID,27,VALID,0.875391,
2010-07-17, 01:39:04,VALID,998.694,VALID,0,VALID,87.5499,VALID,0,VALID,23.9726,VALID,27,VALID,0.387891,
2010-07-17, 01:40:04,VALID,998.684,VALID,0,VALID,88.1145,VALID,0,VALID,23.914,VALID,27,VALID,0.566797,
2010-07-17, 01:41:04,VALID,998.674,VALID,0,VALID,88.5417,VALID,0.112286,VALID,23.9317,VALID,1,VALID,0.836328,
2010-07-17, 01:42:04,VALID,998.63,VALID,0,VALID,88.2518,VALID,0,VALID,23.9744,VALID,359,VALID,0.573047,
2010-07-17, 01:43:04,VALID,998.632,VALID,0,VALID,87.9695,VALID,0,VALID,23.9336,VALID,359,VALID,0.217578,
2010-07-17, 01:44:04,VALID,998.625,VALID,0,VALID,88.1374,VALID,0,VALID,23.9159,VALID,359,VALID,0.379687,
2010-07-17, 01:45:04,VALID,998.615,VALID,0,VALID,88.4654,VALID,0,VALID,23.8555,VALID,359,VALID,0.491797,
2010-07-17, 01:46:04,VALID,998.588,VALID,0,VALID,89.1597,VALID,0,VALID,23.8378,VALID,359,VALID,0.742188,
2010-07-17, 01:47:04,VALID,998.62,VALID,0,VALID,89.2894,VALID,0.112286,VALID,23.836,VALID,359,VALID,0.628906,
2010-07-17, 01:48:04,VALID,998.617,VALID,0,VALID,89.2589,VALID,0.112286,VALID,23.8165,VALID,359,VALID,0.388672,
2010-07-17, 01:49:04,VALID,998.641,VALID,0,VALID,89.2055,VALID,0,VALID,23.7988,VALID,359,VALID,0.0433594,
2010-07-17, 01:50:04,VALID,998.627,VALID,0,VALID,89.3276,VALID,0,VALID,23.7597,VALID,359,VALID,0.0269531,
2010-07-17, 01:51:04,VALID,998.617,VALID,0,VALID,89.4649,VALID,0,VALID,23.7402,VALID,359,VALID,0,
2010-07-17, 01:52:04,VALID,998.574,VALID,0,VALID,89.4878,VALID,0,VALID,23.7207,VALID,359,VALID,0,
2010-07-17, 01:53:04,VALID,998.565,VALID,0,VALID,89.6175,VALID,0,VALID,23.7012,VALID,359,VALID,0,
2010-07-17, 01:54:04,VALID,998.554,VALID,0,VALID,89.8311,VALID,0,VALID,23.7012,VALID,19,VALID,0.642969,
2010-07-17, 01:55:04,VALID,998.587,VALID,0,VALID,89.9685,VALID,0,VALID,23.7207,VALID,53,VALID,1.08086,
2010-07-17, 01:56:04,VALID,998.595,VALID,0,VALID,89.587,VALID,0,VALID,23.7793,VALID,53,VALID,1.2168,
2010-07-17, 01:57:04,VALID,998.633,VALID,0,VALID,89.4115,VALID,0,VALID,23.7988,VALID,59,VALID,1.33828,
2010-07-17, 01:58:04,VALID,998.636,VALID,0,VALID,89.6862,VALID,0,VALID,23.8183,VALID,72,VALID,0.958984,
2010-07-17, 01:59:04,VALID,998.647,VALID,0,VALID,89.7625,VALID,0,VALID,23.8165,VALID,50,VALID,0.660937,
2010-07-17, 02:00:04,VALID,998.626,VALID,0,VALID,89.5412,VALID,0,VALID,23.8378,VALID,6,VALID,0.697266,
2010-07-17, 02:01:04,VALID,998.571,VALID,0,VALID,89.2589,VALID,0,VALID,23.8183,VALID,339,VALID,0.865234,
2010-07-17, 02:02:04,VALID,998.561,VALID,0,VALID,89.2742,VALID,0,VALID,23.8573,VALID,323,VALID,0.943359,
2010-07-17, 02:03:04,VALID,998.533,VALID,0,VALID,89.3734,VALID,0,VALID,23.8573,VALID,329,VALID,0.764844,
2010-07-17, 02:04:04,VALID,998.569,VALID,0,VALID,89.3352,VALID,0,VALID,23.8768,VALID,358,VALID,1.00586,
2010-07-17, 02:05:04,VALID,998.605,VALID,0,VALID,89.0453,VALID,0,VALID,23.8573,VALID,41,VALID,1.3625,
2010-07-17, 02:06:04,VALID,998.625,VALID,0,VALID,89.0682,VALID,0,VALID,23.8183,VALID,54,VALID,1.72461,
2010-07-17, 02:07:04,VALID,998.58,VALID,0,VALID,89.0148,VALID,0,VALID,23.7597,VALID,51,VALID,1.39375,
2010-07-17, 02:08:04,VALID,998.566,VALID,0,VALID,89.4649,VALID,0,VALID,23.7207,VALID,49,VALID,1.20547,
2010-07-17, 02:09:04,VALID,998.557,VALID,0,VALID,89.7396,VALID,0,VALID,23.7402,VALID,25,VALID,0.945703,
2010-07-17, 02:10:04,VALID,998.566,VALID,0,VALID,89.854,VALID,0,VALID,23.7207,VALID,342,VALID,1.00352,
2010-07-17, 02:11:04,VALID,998.593,VALID,0,VALID,90.144,VALID,0,VALID,23.7402,VALID,347,VALID,0.839844,
2010-07-17, 02:12:04,VALID,998.598,VALID,0,VALID,90.0143,VALID,0,VALID,23.7402,VALID,347,VALID,0.352734,
2010-07-17, 02:13:04,VALID,998.647,VALID,0,VALID,90.0448,VALID,0,VALID,23.7384,VALID,347,VALID,0.186719,
2010-07-17, 02:14:04,VALID,998.681,VALID,0,VALID,90.0295,VALID,0,VALID,23.7402,VALID,347,VALID,0.182812,
2010-07-17, 02:15:04,VALID,998.686,VALID,0,VALID,90.1211,VALID,0,VALID,23.7597,VALID,347,VALID,0.110547,
2010-07-17, 02:16:04,VALID,998.718,VALID,0,VALID,90.1363,VALID,0,VALID,23.7402,VALID,347,VALID,0.240234,
2010-07-17, 02:17:04,VALID,998.724,VALID,0,VALID,90.1897,VALID,0,VALID,23.7189,VALID,347,VALID,0.214062,
2010-07-17, 02:18:04,VALID,998.717,VALID,0,VALID,90.2584,VALID,0,VALID,23.7207,VALID,347,VALID,0.45625,
2010-07-17, 02:19:04,VALID,998.735,VALID,0,VALID,90.3423,VALID,0,VALID,23.7207,VALID,14,VALID,0.632813,
2010-07-17, 02:20:04,VALID,998.724,VALID,0,VALID,90.4568,VALID,0,VALID,23.7012,VALID,10,VALID,0.682031,
2010-07-17, 02:21:04,VALID,998.737,VALID,0,VALID,90.5941,VALID,0,VALID,23.7012,VALID,10,VALID,0.703516,
2010-07-17, 02:22:04,VALID,998.759,VALID,0,VALID,90.6246,VALID,0,VALID,23.7012,VALID,10,VALID,0.608203,
2010-07-17, 02:23:04,VALID,998.784,VALID,0,VALID,90.6628,VALID,0,VALID,23.6817,VALID,11,VALID,0.741406,
2010-07-17, 02:24:04,VALID,998.793,VALID,0,VALID,90.556,VALID,0,VALID,23.6817,VALID,11,VALID,0.666016,
2010-07-17, 02:25:04,VALID,998.835,VALID,0,VALID,90.3805,VALID,0,VALID,23.7012,VALID,11,VALID,0.652734,
2010-07-17, 02:26:04,VALID,998.81,VALID,0,VALID,90.2508,VALID,0,VALID,23.7012,VALID,7,VALID,0.879687,
2010-07-17, 02:27:04,VALID,998.785,VALID,0,VALID,89.999,VALID,0,VALID,23.6817,VALID,355,VALID,1.19492,
2010-07-17, 02:28:04,VALID,998.763,VALID,0,VALID,89.6709,VALID,0,VALID,23.6817,VALID,359,VALID,1.57461,
2010-07-17, 02:29:04,VALID,998.729,VALID,0,VALID,89.5336,VALID,0,VALID,23.6817,VALID,4,VALID,1.59687,
2010-07-17, 02:30:04,VALID,998.718,VALID,0,VALID,89.3734,VALID,0,VALID,23.6604,VALID,17,VALID,1.62188,
2010-07-17, 02:31:04,VALID,998.667,VALID,0,VALID,89.1216,VALID,0,VALID,23.6817,VALID,8,VALID,1.61289,
2010-07-17, 02:32:04,VALID,998.701,VALID,0,VALID,88.9309,VALID,0,VALID,23.7207,VALID,15,VALID,1.1,
2010-07-17, 02:33:04,VALID,998.694,VALID,0,VALID,88.7172,VALID,0,VALID,23.7207,VALID,22,VALID,1.0168,
2010-07-17, 02:34:04,VALID,998.682,VALID,0,VALID,88.6486,VALID,0,VALID,23.7207,VALID,32,VALID,1.21914,
2010-07-17, 02:35:04,VALID,998.715,VALID,0,VALID,88.618,VALID,0,VALID,23.7402,VALID,18,VALID,0.978516,
2010-07-17, 02:36:04,VALID,998.695,VALID,0,VALID,88.5265,VALID,0,VALID,23.7402,VALID,13,VALID,1.38437,
2010-07-17, 02:37:04,VALID,998.685,VALID,0,VALID,88.4883,VALID,0,VALID,23.7189,VALID,11,VALID,1.3375,
2010-07-17, 02:38:04,VALID,998.689,VALID,0,VALID,88.5341,VALID,0,VALID,23.7207,VALID,25,VALID,1.55,
2010-07-17, 02:39:04,VALID,998.701,VALID,0,VALID,88.5875,VALID,0,VALID,23.7207,VALID,28,VALID,1.34727,
2010-07-17, 02:40:04,VALID,998.713,VALID,0,VALID,88.5494,VALID,0,VALID,23.7402,VALID,27,VALID,1.03516,
2010-07-17, 02:41:04,VALID,998.743,VALID,0,VALID,88.618,VALID,0,VALID,23.742,VALID,27,VALID,0.943359,
2010-07-17, 02:42:04,VALID,998.772,VALID,0,VALID,88.6562,VALID,0,VALID,23.7207,VALID,71,VALID,1.36953,
2010-07-17, 02:43:04,VALID,998.822,VALID,0,VALID,88.7249,VALID,0,VALID,23.6994,VALID,62,VALID,1.21172,
2010-07-17, 02:44:04,VALID,998.808,VALID,0,VALID,88.8088,VALID,0,VALID,23.7207,VALID,54,VALID,0.405859,
2010-07-17, 02:45:04,VALID,998.804,VALID,0,VALID,88.7477,VALID,0,VALID,23.7189,VALID,54,VALID,0.426953,
2010-07-17, 02:46:04,VALID,998.82,VALID,0,VALID,88.763,VALID,0,VALID,23.7207,VALID,54,VALID,0.296094,
2010-07-17, 02:47:04,VALID,998.828,VALID,0,VALID,88.908,VALID,0,VALID,23.6994,VALID,54,VALID,0.248828,
2010-07-17, 02:48:04,VALID,998.811,VALID,0,VALID,88.8011,VALID,0,VALID,23.7012,VALID,54,VALID,0.294922,
2010-07-17, 02:49:04,VALID,998.806,VALID,0,VALID,88.9461,VALID,0,VALID,23.7207,VALID,54,VALID,0.35625,
2010-07-17, 02:50:04,VALID,998.834,VALID,0,VALID,88.7935,VALID,0,VALID,23.7793,VALID,54,VALID,0.511719,
2010-07-17, 02:51:04,VALID,998.84,VALID,0,VALID,88.7172,VALID,0,VALID,23.7988,VALID,54,VALID,0.357422,
2010-07-17, 02:52:04,VALID,998.803,VALID,0,VALID,88.618,VALID,0,VALID,23.8591,VALID,54,VALID,0.0238281,
2010-07-17, 02:53:04,VALID,998.779,VALID,0,VALID,88.557,VALID,0,VALID,23.8378,VALID,54,VALID,0,
2010-07-17, 02:54:04,VALID,998.792,VALID,0,VALID,88.4273,VALID,0,VALID,23.8378,VALID,54,VALID,0.161719,
2010-07-17, 02:55:04,VALID,998.831,VALID,0,VALID,88.3586,VALID,0,VALID,23.8963,VALID,54,VALID,0,
2010-07-17, 02:56:04,VALID,998.891,VALID,0,VALID,88.2289,VALID,0,VALID,23.8963,VALID,54,VALID,0,
2010-07-17, 02:57:04,VALID,998.911,VALID,0,VALID,88.0992,VALID,0,VALID,23.9159,VALID,54,VALID,0,
2010-07-17, 02:58:04,VALID,998.945,VALID,0,VALID,87.9237,VALID,0,VALID,23.8768,VALID,54,VALID,0,
2010-07-17, 02:59:04,VALID,998.926,VALID,0,VALID,88.4426,VALID,0,VALID,23.8573,VALID,115,VALID,0.634375,
2010-07-17, 03:00:04,VALID,998.922,VALID,0,VALID,88.1145,VALID,0,VALID,23.8768,VALID,116,VALID,0.621875,
2010-07-17, 03:01:04,VALID,998.915,VALID,0,VALID,87.7483,VALID,0,VALID,23.9177,VALID,116,VALID,0.385938,
2010-07-17, 03:02:04,VALID,998.905,VALID,0,VALID,87.7864,VALID,0,VALID,23.9159,VALID,116,VALID,0.00546875,
2010-07-17, 03:03:04,VALID,998.905,VALID,0,VALID,87.9314,VALID,0,VALID,23.9159,VALID,116,VALID,0.0851562,
2010-07-17, 03:04:04,VALID,998.937,VALID,0,VALID,88.1526,VALID,0,VALID,23.9354,VALID,116,VALID,0.242969,
2010-07-17, 03:05:04,VALID,998.961,VALID,0,VALID,88.145,VALID,0,VALID,23.9354,VALID,116,VALID,0.0636719,
2010-07-17, 03:06:04,VALID,999.019,VALID,0,VALID,88.0763,VALID,0,VALID,23.9549,VALID,116,VALID,0.000390625,
2010-07-17, 03:07:04,VALID,999.038,VALID,0,VALID,87.9848,VALID,0,VALID,23.9549,VALID,127,VALID,0.512891,
2010-07-17, 03:08:04,VALID,999.052,VALID,0,VALID,88.9309,VALID,0,VALID,23.9726,VALID,148,VALID,1.76211,
2010-07-17, 03:09:04,VALID,999.066,VALID,0,VALID,88.8622,VALID,0,VALID,24.0915,VALID,151,VALID,1.81914,
2010-07-17, 03:10:04,VALID,999.072,VALID,0,VALID,88.8164,VALID,0,VALID,24.15,VALID,147,VALID,1.50547,
2010-07-17, 03:11:04,VALID,999.081,VALID,0,VALID,88.8774,VALID,0,VALID,24.1891,VALID,145,VALID,1.57383,
2010-07-17, 03:12:04,VALID,999.051,VALID,0,VALID,88.9461,VALID,0,VALID,24.1891,VALID,136,VALID,1.67305,
2010-07-17, 03:13:04,VALID,999.047,VALID,0,VALID,88.8011,VALID,0,VALID,24.2104,VALID,139,VALID,1.4918,
2010-07-17, 03:14:04,VALID,999.045,VALID,0,VALID,88.6791,VALID,0,VALID,24.2086,VALID,126,VALID,1.28086,
2010-07-17, 03:15:04,VALID,999.023,VALID,0,VALID,88.5265,VALID,0,VALID,24.1891,VALID,112,VALID,1.66992,
2010-07-17, 03:16:04,VALID,999.048,VALID,0,VALID,88.4426,VALID,0,VALID,24.2086,VALID,116,VALID,1.52852,
2010-07-17, 03:17:04,VALID,999.084,VALID,0,VALID,88.5036,VALID,0,VALID,24.1891,VALID,110,VALID,1.1793,
2010-07-17, 03:18:04,VALID,999.049,VALID,0,VALID,88.6562,VALID,0,VALID,24.1696,VALID,103,VALID,1.14688,
2010-07-17, 03:19:04,VALID,999.04,VALID,0,VALID,88.7096,VALID,0,VALID,24.15,VALID,92,VALID,1.63477,
2010-07-17, 03:20:04,VALID,999.067,VALID,0,VALID,88.8546,VALID,0,VALID,24.15,VALID,100,VALID,1.21953,
2010-07-17, 03:21:04,VALID,999.042,VALID,0,VALID,88.9766,VALID,0,VALID,24.111,VALID,89,VALID,1.57773,
2010-07-17, 03:22:04,VALID,999.039,VALID,0,VALID,88.9995,VALID,0,VALID,24.1305,VALID,86,VALID,1.15,
2010-07-17, 03:23:04,VALID,999.061,VALID,0,VALID,88.969,VALID,0,VALID,24.111,VALID,67,VALID,1.14336,
2010-07-17, 03:24:04,VALID,999.061,VALID,0,VALID,88.8774,VALID,0,VALID,24.0915,VALID,51,VALID,0.721875,
2010-07-17, 03:25:04,VALID,999.049,VALID,0,VALID,88.7935,VALID,0,VALID,24.072,VALID,39,VALID,0.69375,
2010-07-17, 03:26:04,VALID,999.035,VALID,0,VALID,88.8393,VALID,0,VALID,24.0134,VALID,38,VALID,0.305859,
2010-07-17, 03:27:04,VALID,999.05,VALID,0,VALID,88.9003,VALID,0,VALID,23.9531,VALID,38,VALID,0.357422,
2010-07-17, 03:28:04,VALID,999.065,VALID,0,VALID,88.9766,VALID,0,VALID,23.9354,VALID,38,VALID,0.180078,
2010-07-17, 03:29:04,VALID,999.039,VALID,0,VALID,89.0758,VALID,0,VALID,23.8768,VALID,32,VALID,0.484766,
2010-07-17, 03:30:04,VALID,999.019,VALID,0,VALID,89.4115,VALID,0,VALID,23.8378,VALID,286,VALID,0.704297,
2010-07-17, 03:31:04,VALID,999.048,VALID,0,VALID,89.5717,VALID,0,VALID,23.8378,VALID,246,VALID,0.769141,
2010-07-17, 03:32:04,VALID,999.052,VALID,0,VALID,89.4878,VALID,0,VALID,23.8768,VALID,216,VALID,0.86875,
2010-07-17, 03:33:04,VALID,999.001,VALID,0,VALID,89.3352,VALID,0,VALID,23.9159,VALID,209,VALID,0.524219,
2010-07-17, 03:34:04,VALID,999.016,VALID,0,VALID,89.1826,VALID,0,VALID,23.9549,VALID,209,VALID,0.554297,
2010-07-17, 03:35:04,VALID,999.004,VALID,0,VALID,89.0377,VALID,0,VALID,23.9744,VALID,209,VALID,0.173828,
2010-07-17, 03:36:04,VALID,998.975,VALID,0,VALID,88.9614,VALID,0,VALID,23.9939,VALID,209,VALID,0,
2010-07-17, 03:37:04,VALID,998.984,VALID,0,VALID,88.6791,VALID,0,VALID,23.9744,VALID,209,VALID,0,
2010-07-17, 03:38:04,VALID,998.977,VALID,0,VALID,88.8622,VALID,0,VALID,23.9744,VALID,209,VALID,0,
2010-07-17, 03:39:04,VALID,998.975,VALID,0,VALID,88.7477,VALID,0,VALID,23.9549,VALID,209,VALID,0,
2010-07-17, 03:40:04,VALID,998.956,VALID,0,VALID,88.824,VALID,0,VALID,23.9354,VALID,209,VALID,0.547266,
2010-07-17, 03:41:04,VALID,998.994,VALID,0,VALID,88.6486,VALID,0,VALID,23.8768,VALID,209,VALID,0.398828,
2010-07-17, 03:42:04,VALID,998.993,VALID,0,VALID,89.0606,VALID,0,VALID,23.8573,VALID,209,VALID,0.0046875,
2010-07-17, 03:43:04,VALID,998.972,VALID,0,VALID,89.2589,VALID,0,VALID,23.8378,VALID,209,VALID,0,
2010-07-17, 03:44:04,VALID,998.967,VALID,0,VALID,89.5107,VALID,0,VALID,23.8573,VALID,209,VALID,0,
2010-07-17, 03:45:04,VALID,998.955,VALID,0,VALID,89.175,VALID,0,VALID,23.8573,VALID,209,VALID,0.362891,
2010-07-17, 03:46:04,VALID,998.964,VALID,0,VALID,89.0758,VALID,0,VALID,23.8378,VALID,287,VALID,0.723437,
2010-07-17, 03:47:04,VALID,998.979,VALID,0,VALID,89.2284,VALID,0,VALID,23.7793,VALID,346,VALID,1.06367,